Location: Bjelajci
(45.0103°N, 16.1758°E)
Time: 09:15:41
(UTC+00:00)

Gbstr 26 Del rocket - Pass Details

Date: 14 July 2020
Orbit: 492 x 1264 km, 51.8° (Epoch: 08 August)

Event Time Altitude Azimuth Distance (km) Brightness Sun altitude
Rises 01:39:32 0° 299° (WNW) 2,705 6.3 -14.2°
Reaches altitude 10° 01:41:35 10° 299° (WNW) 1,876 5.4 -14.0°
Maximum altitude 01:45:50 85° 211° (SSW) 651 3.1 -13.5°
Drops below altitude 10° 01:51:00 10° 124° (SE) 2,273 6.0 -13.0°
Sets 01:53:42 0° 124° (SE) 3,332 6.9 -12.7°
